RH
27 30 27 29 50 69 84 81 77 74 71 76 87 90 91 90 92 85 77 70 66 69 69 67 66 63 53 50 51 54 62 67 85 91 85 74 70 66 66 68 73 73 71
26 26 29 28 40 46 61 76 87 81 80 72 68 74 78 85 88 79 75 72 72 73 71 67 67 71 69 64 64 66 66 69 81 87 84 80 72 67 62 64 71 75 75
24 23 23 31 32 35 37 43 55 77 84 70 71 72 80 82 81 80 77 76 75 70 75 65 69 70 77 75 72 74 76 75 79 84 82 78 72 63 57 57 63 72 77
28 27 24 25 27 27 38 40 41 42 43 55 61 80 74 71 64 63 62 64 68 69 70 84 86 82 86 88 84 83 84 85 84 88 89 85 69 68 69 63 62 68 75
29 29 28 30 30 31 32 35 37 38 39 40 41 44 58 68 70 65 57 51 54 67 75 79 86 91 95 99 99 97 95 93 94 92 91 89 88 82 78 71 66 66 66
31 30 30 29 30 31 33 32 34 36 37 37 40 41 44 56 71 77 79 78 81 78 73 70 76 77 98 98 100 100 98 95 96 96 97 96 94 90 86 82 80 69 65
35 36 35 35 34 32 31 31 31 32 35 40 40 42 42 44 51 67 84 96 90 94 90 80 89 97 98 100 100 98 100 98 99 99 92 96 96 98 96 95 90 79 70
47 46 46 42 42 40 38 37 37 37 36 35 35 36 38 39 40 44 54 77 88 92 88 96 97 98 98 98 98 93 90 89 90 97 99 97 98 100 100 100 100 95 90
58 59 64 61 55 53 51 49 46 45 42 39 38 37 36 36 36 35 36 39 64 84 83 84 88 99 97 97 97 96 97 88 88 93 95 99 99 100 100 100 100 100 99
63 66 68 67 63 60 58 57 56 53 51 50 48 47 45 43 40 40 39 38 39 51 73 87 92 98 97 96 98 96 95 94 88 92 85 99 100 100 100 100 100 100 100
64 67 70 66 62 62 61 59 58 55 54 54 52 52 52 52 52 53 53 50 48 47 52 60 57 56 90 99 98 98 98 95 92 95 100 100 100 100 100 99 100 99 100
65 67 68 65 65 64 62 61 60 58 60 61 60 60 59 61 60 64 66 70 65 62 63 65 65 61 68 93 98 97 98 100 98 93 90 91 96 97 100 100 100 100 99
67 68 68 66 65 65 63 62 62 62 65 69 72 72 70 71 72 76 79 86 86 81 79 84 95 98 100 100 97 96 97 97 97 97 94 98 100 100 100 99 95 89 93
66 69 68 68 68 66 65 65 64 66 70 75 80 84 95 98 99 99 99 99 99 99 98 99 100 99 98 97 98 99 99 98 98 99 100 100 99 98 92 88 96 99 100
57 67 67 67 70 69 67 68 69 72 78 82 86 94 98 98 98 98 98 98 98 98 98 97 97 96 94 94 92 92 97 100 100 99 97 92 88 91 97 100 99 99 90
49 65 67 67 70 70 69 70 72 79 82 82 85 89 90 91 89 88 87 89 90 89 88 87 87 86 86 84 88 90 88 88 87 87 90 95 97 98 99 99 88 73 48
48 61 65 67 71 71 70 71 75 82 82 81 83 87 89 92 90 88 85 87 88 86 85 88 91 87 89 95 95 94 91 94 95 94 98 97 95 63 26 19 17 20 27
49 60 65 66 70 73 73 77 82 82 81 81 88 95 96 95 88 86 88 86 86 88 87 90 91 89 88 88 92 96 96 92 72 49 27 22 18 16 16 18 23 29 36
61 64 66 66 73 75 78 78 82 83 81 87 94 98 96 91 90 84 86 94 95 98 96 92 89 86 89 90 68 42 35 34 22 15 14 15 16 15 14 15 18 22 26
64 62 63 68 72 75 79 79 82 85 84 79 90 95 96 94 94 89 87 91 95 94 92 90 91 89 77 56 28 15 14 14 14 14 15 14 14 16 17 16 17 18 19
62 63 66 70 73 78 81 81 80 81 85 78 81 87 93 97 95 91 89 89 89 88 89 84 61 31 18 14 13 13 13 13 12 11 12 14 16 19 19 19 20 21 23
71 72 72 71 75 80 80 80 80 83 85 75 88 91 98 95 91 88 88 89 87 79 67 45 24 18 15 13 13 13 12 10 10 12 15 17 19 20 21 23 25 27 27
74 74 72 72 74 77 78 77 77 80 80 83 93 93 87 89 89 90 89 90 84 52 27 21 18 15 14 14 13 12 9 10 11 15 17 20 23 25 26 27 27 30 41
76 75 73 73 74 74 73 73 73 79 88 89 87 84 91 97 98 99 90 55 33 27 21 17 15 14 14 15 14 10 9 10 13 16 20 22 24 26 24 29 35 46 64
79 76 76 74 74 73 71 70 76 85 91 87 86 97 98 98 99 77 41 35 31 24 19 17 15 14 15 15 11 8 9 13 18 21 22 26 28 27 30 38 47 66 72
80 78 78 80 78 72 69 80 89 93 90 90 98 98 99 98 74 40 36 36 34 23 19 16 14 14 14 14 9 9 12 15 20 22 25 28 29 28 30 41 60 70 71
Wind_Speed
21 25 21 18 17 17 27 25 22 19 18 35 34 31 27 23 23 21 19 18 18 19 19 20 20 21 23 23 23 23 25 27 27 24 26 26 27 29 28 27 28 28 27
30 24 25 23 23 20 19 23 26 23 21 21 27 32 31 27 26 23 23 22 22 22 22 21 22 23 24 25 26 27 27 27 28 29 26 24 29 34 32 31 31 32 31
22 29 21 28 26 24 22 21 19 23 21 21 21 23 25 27 31 30 29 29 28 26 27 26 26 25 26 27 28 29 30 30 30 32 26 13 19 19 25 30 33 34 34
15 13 20 23 24 26 26 27 26 23 17 19 20 23 26 26 25 25 29 31 32 32 31 30 30 29 29 30 30 31 32 32 33 34 38 38 26 15 11 19 23 29 33
25 18 15 17 21 23 24 26 27 28 28 22 20 20 23 24 23 25 26 26 26 28 30 36 30 33 33 32 32 32 35 36 37 38 39 40 41 38 28 23 24 24 28
21 17 16 18 19 17 20 24 26 28 29 31 29 29 26 25 26 27 27 24 24 24 23 22 25 24 28 33 33 33 34 37 39 41 42 43 41 42 42 37 33 27 27
19 15 14 14 15 18 22 24 26 28 31 32 31 32 34 32 29 23 20 22 23 23 23 23 22 19 23 28 30 33 34 36 35 39 40 42 43 42 40 35 35 33 31
13 11 10 11 11 11 12 13 14 16 18 23 27 30 32 34 35 33 31 24 23 22 20 19 19 21 20 21 23 26 30 32 35 36 35 39 39 41 40 39 37 33 30
15 15 12 11 11 11 10 10 10 10 10 11 13 15 18 20 23 27 29 31 32 29 23 20 23 21 20 17 18 20 21 24 27 29 31 35 40 38 39 39 36 35 30
20 17 15 13 11 10 9 7 6 7 9 11 13 15 17 18 19 20 20 22 26 30 29 30 27 25 28 24 21 20 21 22 24 26 28 31 35 37 32 31 30 29 26
20 19 17 13 11 9 7 5 4 6 8 10 12 14 16 17 19 21 22 22 22 21 23 25 25 23 20 20 20 21 20 20 22 24 23 22 23 24 25 23 22 19 17
20 20 16 13 11 8 5 2 4 6 8 8 9 10 12 13 15 17 18 20 21 22 22 21 19 18 16 16 17 16 16 17 18 19 21 21 21 22 21 19 15 12 10
22 18 15 14 11 8 5 2 4 6 7 7 6 7 7 7 8 8 9 9 11 11 12 12 11 11 10 11 11 11 9 11 12 13 15 16 16 15 11 8 6 6 6
20 18 16 14 11 9 6 4 3 4 5 5 5 6 5 2 1 2 4 4 4 3 4 4 3 3 3 2 4 5 6 7 10 10 9 8 8 6 6 6 6 6 6
20 18 17 15 13 11 7 5 3 3 3 2 3 3 1 3 4 5 5 5 5 5 5 5 5 4 4 3 2 3 2 2 3 2 3 4 5 5 5 5 4 4 2
22 21 19 16 13 10 8 6 3 1 1 1 2 3 5 6 7 7 7 7 7 7 7 7 7 6 7 7 9 8 7 5 4 4 4 3 2 2 4 5 2 2 6
24 24 20 16 14 11 9 7 5 3 3 3 5 7 8 9 10 10 8 9 9 8 8 8 9 10 11 10 10 10 8 7 7 6 4 2 1 2 2 3 5 5 6
22 23 18 15 14 12 10 9 8 5 5 5 8 9 10 11 10 7 7 8 9 11 9 10 11 10 12 12 13 12 10 7 7 6 3 1 1 2 4 5 6 7 7
17 16 13 11 12 13 11 9 9 8 7 7 9 10 9 10 10 11 8 10 12 14 13 12 11 11 14 12 12 11 8 5 3 2 1 2 4 5 7 7 8 9 9
11 11 11 11 11 13 11 10 10 9 9 7 8 9 10 10 12 12 11 12 12 12 13 15 14 12 12 10 8 6 4 3 2 3 4 6 7 8 9 11 11 10 10
12 12 12 12 13 14 13 13 11 10 9 9 9 10 10 12 13 13 12 13 14 15 15 14 13 11 9 7 5 3 2 3 5 6 7 8 9 10 11 12 11 10 9
13 13 12 12 14 16 16 13 11 10 10 11 11 12 14 15 14 13 16 16 15 14 13 12 10 8 6 4 2 2 4 6 6 7 8 10 11 12 12 11 9 8 8
11 10 11 12 14 16 16 15 13 13 12 13 14 15 15 13 15 17 18 16 14 12 11 10 7 6 4 2 1 3 5 6 8 9 10 11 12 12 11 10 8 6 5
11 10 11 12 14 15 15 14 13 14 15 16 17 18 16 17 18 15 14 13 12 11 8 7 6 4 2 1 3 7 9 11 11 12 13 13 13 12 11 7 6 5 5
11 10 9 10 12 13 14 14 15 17 18 19 20 18 18 20 19 16 14 11 9 8 6 5 4 2 2 4 7 9 10 11 12 12 13 12 10 10 8 6 6 6 7
12 11 10 10 10 11 13 14 16 19 22 22 21 21 22 20 17 15 14 12 10 8 7 6 4 3 4 7 8 9 10 12 12 13 12 11 11 9 8 7 8 9 9
Wind_Direction
236 219 216 216 206 204 207 217 222 227 211 212 206 206 206 209 220 229 236 238 242 242 243 246 246 243 244 247 247 245 240 242 239 243 247 247 248 252 252 251 253 255 259
248 241 219 209 201 204 206 216 217 225 231 219 219 225 224 218 224 230 234 241 246 250 252 254 255 250 248 247 246 247 246 245 242 238 239 244 249 253 252 251 249 253 257
247 244 229 206 205 205 214 214 215 227 233 237 229 226 226 228 229 233 237 239 245 250 255 261 262 258 253 251 251 251 250 249 244 246 235 223 239 255 260 254 252 250 250
229 196 199 202 194 200 197 204 210 208 215 227 235 238 243 245 242 243 247 250 250 253 251 248 255 260 259 256 255 253 253 253 251 242 245 247 253 254 268 259 251 247 249
235 239 214 198 197 199 200 206 212 217 221 226 229 233 239 250 256 260 258 253 248 246 250 255 254 252 254 257 255 253 251 252 255 255 250 248 249 250 255 266 262 254 246
221 216 213 220 218 214 213 220 224 228 229 230 232 237 238 237 242 248 254 261 267 265 261 258 259 262 251 250 251 250 254 255 254 255 258 258 253 250 249 252 259 262 250
193 194 208 224 230 232 233 233 233 235 234 232 232 233 238 240 237 235 237 241 255 257 266 273 271 262 252 252 252 253 256 256 262 259 262 262 264 263 264 261 257 255 251
176 198 208 218 210 200 197 204 215 221 228 231 235 238 240 241 245 247 243 240 239 243 259 264 258 253 258 259 257 257 259 259 259 264 266 267 267 263 261 265 261 254 256
161 163 170 179 173 169 169 174 187 203 213 222 226 232 237 242 244 245 247 244 245 248 248 251 252 258 262 264 263 260 256 257 258 263 269 272 269 263 265 261 259 260 254
159 165 174 176 177 175 178 185 204 227 241 248 249 247 246 246 246 247 246 247 246 247 247 242 248 253 259 262 262 262 261 258 259 262 267 269 268 263 258 259 259 261 261
167 172 179 181 180 181 186 203 243 266 270 267 263 258 254 252 249 248 248 248 247 247 248 251 254 255 248 251 257 259 258 255 257 259 263 265 265 268 265 267 271 275 271
173 179 183 184 184 187 195 226 289 300 292 283 273 263 254 248 246 244 246 248 249 250 253 255 255 253 248 247 251 248 250 252 256 260 263 265 269 272 270 267 261 252 244
170 179 188 192 194 195 205 246 306 313 306 297 290 279 266 252 245 235 235 237 243 245 246 249 245 240 237 233 238 241 246 248 250 252 256 255 253 252 247 244 241 235 238
186 191 196 199 202 204 214 238 290 317 309 297 306 313 298 283 211 195 196 203 207 221 218 219 224 200 198 208 230 236 246 252 251 254 251 248 238 231 231 224 224 226 228
191 198 200 203 204 208 214 231 265 316 305 323 344 346 79 138 136 139 152 159 158 161 154 145 141 133 135 164 202 226 238 215 230 226 221 203 203 211 213 224 229 241 332
198 198 205 208 212 215 225 233 245 271 187 136 85 134 145 147 139 143 143 144 144 144 144 142 143 139 144 143 123 108 102 98 113 119 144 164 175 217 238 260 281 305 269
201 201 207 213 217 220 229 221 218 174 188 175 156 163 151 143 133 130 131 128 124 131 133 133 128 125 118 112 109 100 95 104 107 98 105 111 162 213 261 290 277 268 268
202 201 202 206 212 214 215 214 203 186 195 182 176 163 154 152 139 134 147 164 155 149 144 137 127 122 114 100 102 100 98 101 102 109 112 128 255 272 261 266 275 275 278
192 201 208 210 202 205 207 203 196 193 188 189 181 175 171 170 159 144 154 150 149 139 134 125 120 121 117 113 106 102 104 104 104 100 25 314 297 303 307 307 298 291 285
201 211 216 212 205 205 205 203 198 197 195 197 196 190 185 174 164 153 156 153 145 141 134 130 124 121 118 113 104 95 88 67 17 339 328 322 314 309 306 303 297 291 287
209 214 216 216 207 205 209 212 205 195 198 201 212 198 187 174 169 158 154 151 148 141 135 133 127 124 120 112 102 81 35 349 331 329 323 315 307 300 301 299 297 292 292
215 215 215 214 208 208 214 221 222 209 198 204 198 183 173 169 164 163 154 150 145 144 141 138 137 137 130 128 104 2 337 329 328 326 317 313 308 307 305 300 295 289 287
215 213 217 219 217 215 215 219 219 208 192 193 183 173 167 166 166 163 156 154 152 157 151 148 150 151 151 154 310 334 339 338 336 329 323 322 317 313 306 298 288 274 259
217 220 225 222 218 213 213 215 214 203 193 184 179 172 173 172 165 163 164 166 166 167 167 169 174 179 196 272 335 340 339 335 332 329 325 321 317 314 309 292 272 255 252
220 227 227 219 215 213 212 209 204 201 192 180 176 174 177 173 174 173 175 178 178 179 187 192 202 224 283 326 334 331 328 330 327 325 322 316 311 311 301 280 264 258 265
224 227 226 224 218 210 209 205 201 192 183 179 181 183 183 183 184 185 187 188 196 199 204 209 229 262 303 313 316 322 323 323 321 321 318 312 308 305 290 273 266 264 267